Regional Weather Roundup
Issued by NWS

Home | Current Version | Previous Version | Text Only | Print | Product List | Glossary On
Versions: 1 2 3 4 5 6 7 8 9 10 11 12 13 14 15 16 17 18 19 20 21 22 23 24 25 26 27 28 29 30 31 32 33 34 35 36 37 38 39 40 41 42 43 44 45 46 47 48 49 50
000
ASUS43 KDMX 211006
RWRIA

WEATHER ROUNDUP FOR IOWA
NATIONAL WEATHER SERVICE DES MOINES IA
500 AM CDT THU SEP 21 2017

NOTE: "FAIR" INDICATES FEW OR NO CLOUDS BELOW 12,000 FEET WITH NO
SIGNIFICANT WEATHER AND/OR OBSTRUCTIONS TO VISIBILITY.

* - THESE STATIONS ARE NOT NWS STATIONS...THUS NOT UNDER NWS
QUALITY CONTROL.  THEY ALSO DO NOT REPORT WEATHER SUCH
AS PRECIPITATION OR FOG.

IAZ001>003-012>014-020>022-031>034-043>046-211100-
   NORTHWEST IOWA

CITY           SKY/WX    TMP DP  RH WIND       PRES   REMARKS
CARROLL *      CLOUDY    55  55 100 N5        29.91S
CHEROKEE *     CLEAR     54  52  92 E12       29.93S
DENISON *      PTCLDY    59  55  88 NE5       29.91S
LE MARS *      CLEAR     59  50  72 E9        29.90F
ORANGE CITY *  CLEAR     55  50  82 E6        29.91F
SHELDON *      CLEAR     54  50  87 E7        29.92S
SIOUX CITY     CLEAR     55  51  86 E6        29.88F
SPENCER        CLEAR     52  48  86 E9        29.95S
STORM LAKE *   CLEAR     55  50  82 E12       29.93S
$$

IAZ055>058-069>071-079>083-090>094-211100-
   SOUTHWEST IOWA

CITY           SKY/WX    TMP DP  RH WIND       PRES   REMARKS
ATLANTIC *     CLOUDY    66  59  77 NE5       29.89R
AUDUBON *      PTCLDY    63  57  82 NE3       29.92R
CLARINDA *     MOCLDY    68  63  83 NE3       29.88F
COUNCIL BLFS * MOCLDY    68  61  77 E10       29.86S
CRESTON *      MOCLDY    66  61  82 NE12      29.91S
HARLAN  *      CLEAR     64  59  82 NE5       29.92S
LAMONI         CLOUDY    69  66  90 N6        29.90R
RED OAK *      MOCLDY    66  61  82 NE7       29.87S
SHENANDOAH *   MOCLDY    68  63  83 E7        29.86S
$$

IAZ047>049-059>061-072>074-084-211100-
   CENTRAL IOWA

CITY           SKY/WX    TMP DP  RH WIND       PRES   REMARKS
AMES           CLEAR     64  60  87 NE5       29.92R
ANKENY *       CLOUDY    66  61  82 CALM      29.92R
BOONE *        CLEAR     63  59  88 NE7       29.91S
CHARITON *     HVY RAIN  70  70 100 E10       29.90F
DES MOINES     CLOUDY    70  63  78 E8        29.91R
GRINNELL*      CLOUDY    67  65  93 CALM      29.96R
KNOXVILLE *    RAIN      70  68  94 NE12      29.90R
MARSHALLTOWN   CLOUDY    65  63  93 E7        29.93R
NEWTON *       CLOUDY    66  64  94 E9        29.93R
PELLA *        HVY RAIN  71  68  89 SE7       29.94R
PERRY *          N/A     64  60  86 NE3       29.92R
$$

IAZ004>006-015-016-023>025-035-036-211100-
   NORTH CENTRAL IOWA

CITY           SKY/WX    TMP DP  RH WIND       PRES   REMARKS
ALGONA *       CLEAR     52  52 100 NE6       29.95F
CLARION *      PTCLDY    57  55  94 NE8       29.95S
ESTHERVILLE    CLEAR     50  48  93 E7        29.96S
FORT DODGE *   CLEAR     56  53  90 NE6       29.94F
MASON CITY     CLEAR     49  47  93 NE5       29.98S
FOREST CITY *    N/A     55  50  82 NE7       29.97S
IOWA FALLS *     N/A     61  57  87 NE6       29.95R
$$

IAZ007>011-017>019-026>030-037>042-050>054-066-211100-
   NORTHEAST IOWA

CITY           SKY/WX    TMP DP  RH WIND       PRES   REMARKS
CEDAR RAPIDS   CLOUDY    68  67  96 S9        29.94S
CHARLES CITY * CLEAR     57  55  94 NE7       29.96S
CLINTON *      LGT RAIN N/A N/A N/A S28G43    29.94F
DECORAH *      CLOUDY    57  57 100 CALM      29.96S
DUBUQUE        CLOUDY    67  64  90 W5        29.95F
MONTICELLO *   CLOUDY    68  64  88 CALM      29.94F
OELWEIN *      CLOUDY    68  68 100 SE6       29.96R
WATERLOO       CLOUDY    62  60  93 E5        29.94R
$$

IAZ064-065-067-068-078-211100-
   EAST CENTRAL IOWA

CITY           SKY/WX    TMP DP  RH WIND       PRES   REMARKS
DAVENPORT      LGT RAIN  70  64  81 S13       29.96R
IOWA CITY        N/A     70  66  87 S10       29.96R
MUSCATINE *      N/A    N/A N/A N/A MISG        N/A
QUAD CITIES    RAIN      69  65  86 N12       29.94F
$$

IAZ062-063-075>077-085>089-095>099-211100-
   SOUTHEAST IOWA

CITY           SKY/WX    TMP DP  RH WIND       PRES   REMARKS
BURLINGTON     CLOUDY    69  68  96 NE12      29.99F
FAIRFIELD *    CLOUDY    68  68 100 E13       29.94R FOG
FORT MADISON * CLOUDY    72  66  83 N12       30.00R
KEOKUK *       CLOUDY    73  66  78 NE7       29.97S
OSKALOOSA *    LGT RAIN  69  68  97 SW6       29.95S
OTTUMWA        TSTM      69  69 100 W5        29.93S FOG
WASHINGTON *   CLOUDY    68  68 100 SE12      30.00R
$$

ABBREVIATIONS USED IN REMARKS
   TC - TEMPERATURES IN CELSIUS
  WCI - WIND CHILL INDEX
   HX - HEAT INDEX
  VSB - VISIBILITY
$$





USA.gov is the U.S. government's official web portal to all federal, state and local government web resources and services.